Stations météo

réclame
Mon MeteoGroup
La Coruna, Espagne (8001): Température de l'air & dewpoint: 09.08.2018 01:00:00 - 15.08.2018 01:00:00 (CEST)La Coruna, Espagne (8001): Vitesse du vent: 09.08.2018 01:00:00 - 15.08.2018 01:00:00 (CEST)La Coruna, Espagne (8001): Direction du vent: 09.08.2018 01:00:00 - 15.08.2018 01:00:00 (CEST)La Coruna, Espagne (8001): reduced air pressure: 09.08.2018 01:00:00 - 15.08.2018 01:00:00 (CEST)La Coruna, Espagne (8001): visibility: 09.08.2018 01:00:00 - 15.08.2018 01:00:00 (CEST)La Coruna, Espagne (8001): Quantités de précipitations: 09.08.2018 01:00:00 - 15.08.2018 01:00:00 (CEST)
Date & Time tt [°C] td [°C] ff [km/h] ff [knt] dd ppp [hPa] vv [km] rr [mm]
15.08.2018 01:00:00 - - - - - - - -
15.08.2018 00:00:00 19,7 16,0 15 8 ENE 1020,6 7 0,0
14.08.2018 23:00:00 20,0 16,0 18 10 ENE 1020,8 20 -
14.08.2018 22:00:00 20,4 16,2 21 11 NE 1020,5 10 0,0
14.08.2018 21:00:00 21,4 16,6 21 11 NE 1019,6 11 0,0
14.08.2018 20:00:00 21,4 16,8 16 9 NNE 1019,5 10 -
14.08.2018 19:00:00 20,2 16,8 16 9 NNE 1019,8 8 0,0
14.08.2018 18:00:00 20,4 16,6 22 12 N 1019,9 8 0,0
14.08.2018 17:00:00 21,2 16,6 24 13 N 1020,2 8 -
14.08.2018 16:00:00 21,5 16,7 26 14 N 1020,6 9 0,0
14.08.2018 15:00:00 21,4 16,6 22 12 N 1021,2 9 0,0
14.08.2018 14:00:00 21,5 16,2 18 10 N 1021,4 25 -
14.08.2018 13:00:00 22,6 16,2 13 7 N 1021,8 8 0,0
14.08.2018 12:00:00 21,9 16,0 16 9 NNE 1021,8 8 0,0
14.08.2018 11:00:00 21,1 16,3 15 8 ENE 1022,0 25 -
14.08.2018 10:00:00 19,1 15,8 11 6 E 1022,1 7 0,0
14.08.2018 09:00:00 18,9 15,8 9 5 ENE 1021,9 6 0,0
14.08.2018 08:00:00 18,5 15,7 5 3 ENE 1021,8 18 -
14.08.2018 07:00:00 18,4 15,6 8 4 NE 1021,5 6 0,0
14.08.2018 06:00:00 18,3 15,7 8 4 ENE 1021,3 6 0,0
14.08.2018 05:00:00 18,4 16,0 11 6 NE 1021,1 20 -
14.08.2018 04:00:00 18,5 16,1 8 4 NE 1021,3 6 0,0
14.08.2018 03:00:00 18,4 16,2 8 4 E 1021,4 6 0,0
14.08.2018 02:00:00 18,4 16,4 8 4 ENE 1021,3 15 -
14.08.2018 01:00:00 18,4 16,6 8 4 NNE 1021,1 6 0,0
14.08.2018 00:00:00 18,4 16,6 5 3 N 1021,2 7 0,0
13.08.2018 23:00:00 18,4 16,4 5 3 N 1021,1 20 -
13.08.2018 22:00:00 18,5 16,3 8 4 NNW 1020,6 7 0,0
13.08.2018 21:00:00 18,7 16,3 8 4 NNW 1020,3 8 0,0
13.08.2018 20:00:00 19,6 16,1 11 6 NW 1020,0 9 -
13.08.2018 19:00:00 20,2 16,0 9 5 NNW 1020,1 9 0,0
13.08.2018 18:00:00 21,8 16,7 11 6 W 1019,8 10 0,0
13.08.2018 17:00:00 21,2 17,4 11 6 W 1020,0 9 -
13.08.2018 16:00:00 20,8 17,0 16 9 WNW 1020,2 9 0,0
13.08.2018 15:00:00 21,3 17,1 18 10 W 1019,7 10 0,0
13.08.2018 14:00:00 21,0 17,0 13 7 W 1019,6 15 -
13.08.2018 13:00:00 20,5 16,7 11 6 W 1019,7 10 0,0
13.08.2018 12:00:00 18,8 17,3 9 5 W 1019,5 7 0,2
13.08.2018 11:00:00 18,5 17,0 18 10 W 1019,2 1,2 -
13.08.2018 10:00:00 17,9 16,6 9 5 WSW 1018,5 8 0,0
13.08.2018 09:00:00 17,0 16,2 8 4 W 1018,1 3,6 0,4
13.08.2018 08:00:00 17,3 16,2 11 6 WSW 1017,7 8 -
13.08.2018 07:00:00 17,4 16,3 9 5 WSW 1017,3 - 0,0
13.08.2018 06:00:00 17,2 16,2 11 6 WSW 1017,1 6 0,2
13.08.2018 05:00:00 17,2 16,4 9 5 WSW 1017,2 5 -
13.08.2018 04:00:00 17,4 15,9 13 7 SW 1017,3 6 0,0
13.08.2018 03:00:00 17,1 16,0 9 5 SSW 1017,4 6 0,4
13.08.2018 02:00:00 17,6 15,9 11 6 WSW 1017,8 10 -
13.08.2018 01:00:00 17,5 15,5 9 5 SSW 1017,7 7 0,0
13.08.2018 00:00:00 18,0 15,3 15 8 WSW 1017,7 7 0,0
12.08.2018 23:00:00 18,3 14,8 13 7 SW 1017,6 20 -
12.08.2018 22:00:00 18,3 14,0 15 8 WSW 1017,4 13 0,0
12.08.2018 21:00:00 18,7 15,0 16 9 W 1016,9 13 0,0
12.08.2018 20:00:00 19,2 15,9 11 6 W 1016,9 13 -
12.08.2018 19:00:00 19,2 17,0 15 8 W 1016,9 11 0,0
12.08.2018 18:00:00 19,2 17,9 18 10 W 1017,0 9 0,0
12.08.2018 17:00:00 19,8 18,5 22 12 W 1016,7 9 -
12.08.2018 16:00:00 21,0 19,6 15 8 W 1016,6 2,1 2,0
12.08.2018 15:00:00 22,7 19,9 13 7 W 1016,6 7 0,0
12.08.2018 14:00:00 23,5 18,6 15 8 WNW 1016,4 20 -
12.08.2018 13:00:00 23,1 18,4 9 5 SW 1016,7 13 0,0
12.08.2018 12:00:00 21,5 18,1 8 4 WSW 1017,0 12 0,0
12.08.2018 11:00:00 19,7 16,7 8 4 SSW 1017,0 18 -
12.08.2018 10:00:00 18,4 15,8 4 2 E 1017,2 9 0,0
12.08.2018 09:00:00 17,7 15,7 2 1 SW 1017,1 4,4 0,0
12.08.2018 08:00:00 17,2 15,5 2 1 ENE 1017,0 12 -
12.08.2018 07:00:00 17,3 15,6 4 2 SSE 1016,7 3,6 0,0
12.08.2018 06:00:00 17,7 16,0 2 1 ESE 1017,4 3,2 0,0
12.08.2018 05:00:00 18,2 16,5 4 2 SSE 1017,8 15 -
12.08.2018 04:00:00 18,4 16,7 4 2 WSW 1018,3 3,3 0,0
12.08.2018 03:00:00 18,7 17,0 4 2 SW 1018,8 3,8 0,0
12.08.2018 02:00:00 18,7 17,2 4 2 WSW 1019,4 15 -
12.08.2018 01:00:00 18,8 17,5 5 3 WSW 1020,0 3,2 0,0
12.08.2018 00:00:00 18,9 17,4 8 4 WSW 1020,6 3,2 0,0
11.08.2018 23:00:00 19,2 17,5 9 5 W 1020,8 18 -
11.08.2018 22:00:00 19,8 17,2 5 3 W 1020,4 4,3 0,0
11.08.2018 21:00:00 20,5 16,9 11 6 W 1020,3 - 0,0
11.08.2018 20:00:00 20,9 16,9 8 4 NW 1020,5 - -
11.08.2018 19:00:00 21,3 16,7 15 8 WNW 1020,8 - 0,0
11.08.2018 18:00:00 22,3 17,7 15 8 W 1021,0 6 0,0
11.08.2018 17:00:00 22,9 16,9 13 7 W 1021,0 7 -
11.08.2018 16:00:00 22,9 17,1 15 8 W 1021,5 7 0,0
11.08.2018 15:00:00 22,5 16,5 15 8 W 1021,8 8 0,0
11.08.2018 14:00:00 22,2 16,0 11 6 WNW 1021,9 22 -
11.08.2018 13:00:00 22,3 15,2 8 4 N 1022,1 8 0,0
11.08.2018 12:00:00 20,9 14,8 5 3 NE 1022,5 7 0,0
11.08.2018 11:00:00 20,0 15,0 5 3 ENE 1022,6 20 -
11.08.2018 10:00:00 19,0 14,9 5 3 NNE 1023,0 - 0,0
11.08.2018 09:00:00 15,6 14,0 2 1 SE 1023,1 4,3 0,0
11.08.2018 08:00:00 15,0 13,5 2 1 ENE 1022,9 22 -
11.08.2018 07:00:00 15,3 13,7 4 2 ESE 1022,7 3,9 0,0
11.08.2018 06:00:00 15,8 14,0 4 2 SE 1023,0 4,3 0,0
11.08.2018 05:00:00 16,0 14,4 2 1 E 1023,4 12 -
11.08.2018 04:00:00 16,3 14,5 2 1 N 1023,5 3,8 0,0
11.08.2018 03:00:00 16,9 15,1 2 1 NE 1024,1 3,2 0,0
11.08.2018 02:00:00 17,3 14,6 2 1 NW 1024,6 15 -
11.08.2018 01:00:00 17,9 14,8 4 2 NW 1024,6 - 0,0
11.08.2018 00:00:00 18,3 15,0 5 3 NNW 1024,7 - 0,0
10.08.2018 23:00:00 18,4 14,9 5 3 NNW 1024,7 - -
10.08.2018 22:00:00 18,3 15,0 5 3 NW 1024,2 - 0,0
10.08.2018 21:00:00 18,6 14,9 13 7 N 1023,8 - 0,0
10.08.2018 20:00:00 19,2 14,7 16 9 N 1024,0 6 -
10.08.2018 19:00:00 19,4 14,9 15 8 N 1024,4 6 0,0
10.08.2018 18:00:00 19,8 14,4 13 7 NNW 1024,7 9 0,0
10.08.2018 17:00:00 20,2 14,6 13 7 N 1024,9 9 -
10.08.2018 16:00:00 20,1 14,2 15 8 N 1025,2 9 0,0
10.08.2018 15:00:00 19,9 14,0 15 8 NNW 1025,4 9 0,0
10.08.2018 14:00:00 20,5 14,6 13 7 NNW 1025,6 25 -
10.08.2018 13:00:00 19,7 13,4 13 7 NNW 1025,8 9 0,0
10.08.2018 12:00:00 19,3 13,5 11 6 NNW 1025,8 8 0,0
10.08.2018 11:00:00 19,0 13,0 8 4 ENE 1025,7 25 -
10.08.2018 10:00:00 17,5 12,6 4 2 E 1025,6 8 0,0
10.08.2018 09:00:00 14,6 12,3 2 1 ESE 1025,6 7 0,0
10.08.2018 08:00:00 13,8 11,8 2 1 N 1025,4 20 -
10.08.2018 07:00:00 14,1 11,8 4 2 SSE 1025,4 - 0,0
10.08.2018 06:00:00 14,4 12,3 4 2 SSE 1025,1 - 0,0
10.08.2018 05:00:00 15,0 12,5 2 1 E 1025,3 12 -
10.08.2018 04:00:00 15,4 12,7 4 2 SE 1025,3 6 0,0
10.08.2018 03:00:00 16,0 13,1 4 2 ESE 1025,7 6 0,0
10.08.2018 02:00:00 16,4 13,9 4 2 N 1026,1 12 -
10.08.2018 01:00:00 16,8 13,7 4 2 N 1026,2 7 0,0
10.08.2018 00:00:00 17,1 14,0 5 3 N 1026,3 6 0,0
09.08.2018 23:00:00 17,4 13,7 5 3 NNW 1026,2 20 -
09.08.2018 22:00:00 17,6 12,9 9 5 NW 1025,3 9 0,0
09.08.2018 21:00:00 18,1 12,8 9 5 NW 1024,8 10 0,0
09.08.2018 20:00:00 18,7 12,7 9 5 NNW 1024,5 10 -
09.08.2018 19:00:00 19,1 12,6 13 7 NNW 1024,3 10 0,0
09.08.2018 18:00:00 20,0 12,7 13 7 NNW 1024,5 12 0,0
09.08.2018 17:00:00 20,5 13,2 11 6 NW 1024,6 11 -
09.08.2018 16:00:00 20,7 13,9 13 7 N 1024,6 11 0,0
09.08.2018 15:00:00 20,5 14,4 11 6 NNW 1024,4 10 0,0
09.08.2018 14:00:00 20,3 13,7 11 6 NNW 1024,1 25 -
09.08.2018 13:00:00 20,1 13,3 11 6 NNW 1024,0 11 0,2
09.08.2018 12:00:00 19,2 14,0 11 6 NNW 1023,7 10 0,0
09.08.2018 11:00:00 18,0 14,7 13 7 WNW 1023,2 25 -
09.08.2018 10:00:00 18,8 14,5 5 3 NNE 1022,4 9 0,0
09.08.2018 09:00:00 16,8 14,6 4 2 NE 1021,9 8 0,0
09.08.2018 08:00:00 16,5 14,3 5 3 N 1021,1 22 -
09.08.2018 07:00:00 16,6 14,6 11 6 WNW 1020,4 8 0,2
09.08.2018 06:00:00 16,4 14,1 9 5 WNW 1020,0 9 0,0
09.08.2018 05:00:00 16,3 13,8 9 5 NW 1019,6 20 -
09.08.2018 04:00:00 15,7 14,6 8 4 WNW 1019,3 7 0,0
09.08.2018 03:00:00 16,1 15,0 4 2 NW 1019,3 7 0,0
09.08.2018 02:00:00 16,1 15,1 5 3 NW 1019,2 20 -
09.08.2018 01:00:00 15,8 15,3 9 5 NW 1018,8 7 0,4

tt = Température de l'air
td = dewpoint
ff = Vitesse du vent
dd = Direction du vent
ppp = reduced air pressure
vv = visibility
rr = Quantités de précipitations

stations d'obs. à proximité